www.pogodaiklimat.ru

Погода и климат >> Архив погоды >> Россия >> Чукотка >> Анадырь


АРХИВ ПОГОДЫ в Анадыре

Время (UTC), дата Ветер
(напр.,м/с)
 
Видим.   Явления Облачность Т
(С)
Тd
(С)
f
(%)
Тe
(С)
Тes
(С)
Комфортность P
(гПа)
Po
(гПа)
Тmin
(С)
Tmax
(С)
R
(мм)
R24
(мм)
S
(см)
12 16.08 ЮВ 3
{6}
50 км 5/0
[Ac trans Ci fib]
+8.1 +4.1 76 +6 +6 по сезону 1029.5 1022.0
15 16.08 СВ 3
{4}
50 км 9/0
[Ac trans Ci fib]
+8.3 +1.7 63 +6 +6 по сезону 1030.3 1022.8
18 16.08 СВ 6
{8}
50 км 9/8 600 м
[Sc Ac trans]
+7.2 +2.7 73 +3 +3 по сезону 1031.9 1024.4 +7.1
21 16.08 СВ 2
{9}
50 км 9/8 600 м
[Sc Ac trans]
+11.1 +4.5 64 +10 +11 тепло 1033.2 1025.7
00 17.08 В 8-11
{12}
50 км 9/8 600 м
[Sc Ac trans Ci fib]
+13.3 +5.6 60 +11 +11 по сезону 1034.9 1027.4
03 17.08 ЮВ 11-13
{14}
50 км 9/8 600 м
[Cb cap Ac trans]
+12.0 +5.8 66 +8 +8 по сезону 1035.3 1027.8
06 17.08 В 11-14
{14}
50 км 9/8 600 м
[Cb cap Ac trans]
+10.8 +5.6 70 +7 +7 по сезону 1036.0 1028.4 +14.1
09 17.08 В 8-11
{14}
50 км 10/6 600 м
[Cb cap Ac und]
+9.6 +5.9 78 +6 +6 по сезону 1036.3 1028.7
12 17.08 В 9-11
{14}
20 км слаб. ливневой дождь 10/10 300 м
[Cb cap]
+9.3 +7.0 86 +5 +5 по сезону 1036.3 1028.7
15 17.08 В 8-11
{11}
15 км слаб. ливневой дождь 10/10 300 м
[Cb cap]
+8.9 +7.4 90 +4 +4 по сезону 1036.0 1028.4
18 17.08 В 10-12
{14}
7000 м ливневой дождь 10/10 300 м
[Cb cap]
+9.2 +7.6 90 +4 +4 по сезону 1035.5 1027.9 +8.8 4
21 17.08 В 12-15
{19}
20 км слаб. ливневой дождь 10/10 300 м
[Cb cap]
+9.7 +8.1 90 +5 +5 по сезону 1035.0 1027.4
00 18.08 В 11-14
{17}
12 км слаб. ливневой дождь 10/10 300 м
[Cb cap]
+9.8 +8.4 91 +5 +5 прохладно 1035.0 1027.4
03 18.08 В 9-16
{17}
15 км слаб. ливневой дождь 10/10 300 м
[Cb cap]
+10.0 +8.4 90 +6 +6 прохладно 1034.2 1026.6
06 18.08 В 12-16
{19}
18 км слаб. ливневой дождь 10/10 300 м
[Cb cap]
+9.6 +8.1 90 +4 +4 прохладно 1033.2 1025.6 +10.3 2
09 18.08 ЮВ 13-17
{17}
11 км слаб. ливневой дождь 10/10 300 м
[Cb cap]
+9.4 +8.6 95 +4 +4 прохладно 1032.2 1024.7
12 18.08 ЮВ 12-15
{17}
11 км слаб. ливневой дождь 10/10 300 м
[Cb cap]
+9.5 +8.9 96 +4 +4 по сезону 1031.1 1023.6
15 18.08 ЮВ 11-13
{17}
20 км слаб. ливневой дождь 10/10 300 м
[Cb cap]
+8.9 +8.1 95 +4 +4 по сезону 1030.0 1022.5
18 18.08 ЮВ 7
{15}
8000 м туман на расстоянии {ливн. осадки} 10/10 300 м
[Cb cap]
+9.1 +8.4 95 +5 +5 по сезону 1028.9 1021.4 +8.8 0.5
21 18.08 ЮВ 6
{11}
7000 м слаб. ливневой дождь 10/10 300 м
[Cb cap]
+10.1 +9.5 96 +7 +7 по сезону 1028.1 1020.6
00 19.08 Ю 4
{7}
20 км {ливн. осадки} 10/10 300 м
[Cb cap]
+11.2 +9.8 91 +9 +9 по сезону 1026.9 1019.5
03 19.08 ЮЗ 2
{5}
50 км 9/8 600 м
[Cb cap Ac trans]
+12.5 +10.6 88 +12 +12 тепло 1025.6 1018.2
06 19.08 СЗ 3
{6}
50 км 9/9 600 м
[Cb cap]
+12.3 +11.5 95 +11 +11 тепло 1024.4 1017.0 +13.3 0.0
09 19.08 СЗ 5
{6}
20 км в посл. час туман {ливн. осадки} 10/10 300 м
[Cb cap]
+11.1 +10.5 96 +8 +8 по сезону 1024.0 1016.5
12 19.08 СЗ 5
{6}
50 км в посл. час ливневой дождь {туман} 10/10 300 м
[Cb cap]
+10.9 +10.3 96 +8 +8 по сезону 1022.9 1015.4
15 19.08 СЗ 5
{6}
400 м туман ?/? +10.6 +10.4 99 +7 +7 по сезону 1022.4 1014.9
18 19.08 СЗ 6
{7}
50 км {туман} 8/5 600 м
[Cb cap Ac trans Ci fib]
+9.5 +9.3 99 +6 +6 по сезону 1022.7 1015.2 +9.5 0.6
21 19.08 СВ 6
{8}
50 км 8/6 600 м
[Cb cap Ac trans Ci fib]
+12.5 +9.8 84 +10 +10 тепло 1023.6 1016.2 +9.4
00 20.08 СВ 5
{9}
50 км 9/9 600 м
[Cb cap]
+13.2 +7.6 69 +11 +12 тепло 1024.5 1017.1
03 20.08 СВ 7
{10}
50 км {ливн. осадки} 9/9 600 м
[Cb cap]
+13.8 +6.1 60 +12 +12 тепло 1024.8 1017.4
06 20.08 СВ 3
{9}
50 км {ливн. осадки} 8/8 600 м
[Cb cap]
+13.2 +6.2 62 +12 +12 тепло 1024.8 1017.4 +14.4 0.0
09 20.08 ЮВ 2
{6}
50 км 4/0
[Ci fib]
+10.7 +6.2 74 +9 +9 по сезону 1025.6 1018.1
12 20.08 С 2
{3}
50 км 1/0
[Ci fib]
+9.2 +2.7 64 +8 +8 по сезону 1025.5 1018.0
15 20.08 СВ 3
{6}
50 км 1/0
[Ci fib]
+6.6 +1.9 72 +4 +4 по сезону 1024.7 1017.0
18 20.08 СВ 2
{7}
50 км ясно +7.6 +1.5 65 +6 +6 по сезону 1023.7 1016.2 +5.7
21 20.08 С 4
{6}
50 км 3/0
[Ci fib]
+11.4 +4.6 63 +9 +12 по сезону 1022.8 1015.3
00 21.08 З 4
{5}
50 км 1/0
[Ci fib]
+12.9 +5.9 62 +11 +16 тепло 1021.1 1013.8
03 21.08 З 4
{5}
50 км 3/0
[Ci fib]
+14.2 +6.8 61 +13 +16 тепло 1018.9 1011.6
06 21.08 З 3
{6}
50 км 4/0
[Cc]
+14.4 +6.8 60 +14 +14 тепло 1017.3 1010.0 +14.7
09 21.08 З 2
{4}
50 км 9/0
[Ac trans Ci fib]
+12.5 +6.4 66 +12 +12 тепло 1016.3 1009.0
12 21.08 З 2
{6}
50 км 5/0
[Ac trans Ci fib]
+11.3 +6.2 71 +10 +10 тепло 1015.1 1007.6
15 21.08 З 4
{6}
50 км 4/0
[Ac lent Ci fib]
+10.1 +7.1 82 +7 +7 по сезону 1013.6 1006.1
18 21.08 З 4
{6}
50 км 6/0
[Ac trans Cc]
+9.8 +8.4 91 +7 +7 по сезону 1012.3 1004.9 +9.2
21 21.08 СЗ 6
{9}
50 км 9/9 600 м
[Sc Ci fib]
+11.6 +8.5 81 +9 +9 по сезону 1011.7 1004.4
00 22.08 СЗ 4
{7}
50 км 8/0
[Cs]
+15.4 +9.4 67 +14 +19 тепло 1011.1 1003.8
03 22.08 СВ 3
{8}
50 км 8/0
[Ci]
+18.8 +5.0 40 +19 +23 тепло 1010.9 1003.8
06 22.08 СЗ 2
{6}
50 км 8/4 600 м
[Sc diur, vesp Ac trans Ci fib]
+17.5 +7.1 50 +18 +18 тепло 1011.1 1004.0 +19.0
09 22.08 Ю 5
{7}
50 км 9/9 600 м
[Cu Sc]
+12.6 +9.3 80 +10 +10 тепло 1012.6 1005.3
12 22.08 ЮВ 6
{7}
50 км 9/6 600 м
[Sc Ac trans]
+11.8 +9.2 84 +9 +9 тепло 1013.7 1006.4
15 22.08 ЮВ 12-15
{16}
50 км 8/6 600 м
[Cb cap Ac trans]
+9.2 +5.9 80 +4 +4 по сезону 1015.5 1008.0
18 22.08 ЮВ 5
{15}
50 км 9/8 600 м
[Cb cap Ac trans]
+9.1 +5.1 76 +6 +6 по сезону 1018.3 1010.8 +8.7
21 22.08 СЗ 5
{8}
50 км в посл. час ливневой дождь 10/10 600 м
[Cb cap]
+9.6 +6.5 81 +6 +6 по сезону 1020.2 1012.7
00 23.08 З 4
{7}
50 км {ливн. осадки} 9/9 600 м
[Cb cap]
+10.1 +6.5 78 +8 +8 по сезону 1020.9 1013.4
03 23.08 З 5
{7}
50 км 8/8 600 м
[Cb calv]
+12.2 +7.0 71 +10 +10 по сезону 1020.5 1013.2
06 23.08 СЗ 5
{9}
50 км 6/6 600 м
[Cu Sc]
+11.9 +7.6 75 +9 +10 по сезону 1020.3 1013.0 +12.6 0.0

 

Местоположение метеостанции Анадырь (Чукотка, Россия): широта 64.78 долгота 177.50 высота над уровнем моря 61 м.

В архиве по умолчанию представлена погода в Анадыре за последнюю неделю. Архивные данные за месяц целиком и за предыдущие месяцы, начиная с января 2011 года, Вы можете получить, выбрав интересующий диапазон дат из раскрывающегося списка и нажав кнопку "Ввод!".


*Определитесь, кто Вы:
робот инопланетянин человек

Внимание! Время в таблицах - всемирное. Для получения местного времени необходимо прибавить поправку, которая равна 12 ч.

Смотрите также архив погоды в соседних городах и на ближайших метеорологических станциях:

Погода в Анадыре АМС (Чукотка, Россия) (7 км)
Погода в Канчалане (Чукотка, Россия) (58 км)
Погода в Танюрере (Чукотка, Россия) (147 км)
Погода в Эньмувееме (Чукотка, Россия) (263 км)
Погода в Марково (Чукотка, Россия) (337 км)
Погода в Майской (Чукотка, Россия) (457 км)
Погода в Слаутном (Камчатский край, Россия) (504 км)
Погода в Паляваам-Глубокой (Чукотка, Россия) (505 км)
Погода в Илирнее (Чукотка, Россия) (513 км)
Погода в Комсомольской (Чукотка, Россия) (525 км)

Пояснения к столбцам:

Ветер - указаны скорость ветра в м/с - средняя за 10 мин, порывы в срок и между сроками (в фигурных скобках) и направление, откуда дует ветер: С - северный, СВ - северо-восточный, В - восточный, ЮВ - юго-восточный, Ю - южный, ЮЗ - юго-западный, З - западный, СЗ - северо-западный.
Видимость - горизонтальная дальность видимости в метрах или километрах. При видимости от 1 до 10 км при отсутствии осадков обычно наблюдается дымка, при ухудшении видимости до 1 км и менее - туман. В сухую погоду видимость может ухудшаться дымом, пылью или мглою.
Явления - указаны атмосферные явления, наблюдавшиеся в срок или в последний час перед сроком; фигурными скобками обозначены явления, наблюдавшиеся между сроками (за 1-3 часа до срока); квадратными скобками обозначены град или гололедные отложения с указанием их диаметра в мм.
Облачность - указаны через наклонную черту общая и нижняя облачность в баллах и высота нижней границы облаков в метрах; квадратными скобками обозначены формы облаков: Ci - перистые, Cs - перисто-слоистые, Cc - перисто-кучевые, Ac - высококучевые, As - высокослоистые, Sc - слоисто-кучевые, Ns - слоисто-дождевые, Cu - кучевые, Cb - кучево-дождевые. Подробнее классификацию облаков см. в Атласе облаков (PDF).
T - Температура воздуха - температура, измеренная на высоте 2 м над землей.
Td - Температура точки росы - температура, при понижении до которой содержащийся в воздухе водяной пар достигнет насыщения.
f - Относительная влажность воздуха - влажноcть воздуха, измеренная на высоте 2 м над землей.
Te - Эффективная температура - температура, которую ощущает одетый по сезону человек в тени. Характеристика душности погоды. При расчете учитывается влияние влажности воздуха и скорости ветра на теплоощущения человека.
Tes - Эффективная температура на солнце - температура, которую ощущает человек, с поправкой на солнечный нагрев. Характеристика знойности погоды. Зависит от высоты солнца над горизонтом, облачности и скорости ветра. Ночью, в пасмурную погоду, а также при ветре 12 м/с и более поправка равна нулю.
P - Атмосферное давление - приведенное к уровню моря атмосферное давление.
Po - Атмосферное давление - измеренное на уровне метеостанции атмосферное давление.
Tmin - Минимальная температура - минимум температуры воздуха на высоте 2 м над землей.
Tmax - Максимальная температура - максимум температуры воздуха на высоте 2 м над землей.
R - Количество осадков - Количество выпавших осадков за период времени, мм. При наведении курсора мыши на число - период времени, за который выпало указанное количество осадков.
R24 - Количество осадков - Количество выпавших осадков за 24 часа, мм.
S - Снежный покров - Высота снежного покрова, см. При наведении курсора мыши на число - состояние снежного покрова и степень покрытия местности в баллах.